Flag for Turkey Weather past 2 weeks in Samsun, Turkey

Now
57 °F

Broken clouds.


Feels Like: 56 °F
Forecast: 44 / 68 °F
Wind: 7 mph from Northeast

Location: Samsun / Carsamba

Current Time: Oct 20, 2014 at 4:22:15 PM

Latest Report: Oct 20, 2014 at 3:50 PM


Visibility: N/A

Pressure: 30.18 "Hg

Humidity: 63%

Dew point: 45 °F

Location of SamsunLocation

Historic Weather in Samsun — Graph

°F

Samsun temperature yesterday

Maximum temperature yesterday: 59 °F (at 12:50 AM)
Minimum temperature yesterday: 50 °F (at 8:50 PM)
Average temperature yesterday: 54 °F

Past Weeks' High & Low Weather Summary

 TemperatureHumidityPressure
High81 °F (Oct 16, 2:50 PM)100% (Oct 5, 11:50 PM)30.30 "Hg (Oct 5, 11:50 PM)
Low48 °F (Oct 20, 2:50 AM)37% (Oct 16, 2:50 PM)29.68 "Hg (Oct 18, 11:50 AM)
Average62 °F87%30.08 "Hg
* Reported Oct 5 2:50 PM — Oct 20 2:50 PM, Samsun, Weather by CustomWeather, © 2014

Note: Actual official high and low records may vary slightly from our data, if they occured in-between our weather recording intervals... More about our weather records

Advertising

Samsun weather history for previous 24 hours

 ConditionsComfort  
Time TempWeatherWind HumidityBarometerVisibility
2:50 PM
Oct 20
59 °FBroken clouds.3 mph51%30.21 "HgN/A
1:50 PM57 °FBroken clouds.2 mph55%30.21 "HgN/A
12:50 PM55 °FBroken clouds.No wind59%30.24 "HgN/A
11:50 AM55 °FBroken clouds.5 mph67%30.27 "HgN/A
10:50 AM52 °FBroken clouds.7 mph82%30.27 "HgN/A
9:50 AM50 °FLight rain. Partly sunny.7 mph88%30.27 "HgN/A
8:50 AM48 °FLight rain. Partly sunny.6 mph87%30.30 "HgN/A
7:50 AM48 °FLight rain. Broken clouds.5 mph87%30.27 "HgN/A
5:50 AM48 °FPassing clouds.6 mph87%30.27 "HgN/A
4:50 AM50 °FPassing clouds.8 mph82%30.30 "HgN/A
3:50 AM48 °FPassing clouds.3 mph94%30.30 "HgN/A
2:50 AM48 °FLight rain. Partly cloudy.7 mph87%30.30 "HgN/A
1:50 AM50 °FLight rain. Partly cloudy.7 mph88%30.30 "HgN/A
12:50 AM50 °FRain. Partly cloudy.8 mph88%30.30 "Hg4 mi
11:50 PM
Oct 19
50 °FLight rain. Partly cloudy.9 mph88%30.30 "HgN/A
10:50 PM52 °FLight rain. Passing clouds.3 mph77%30.30 "HgN/A
9:50 PM50 °FPassing clouds.8 mph76%30.30 "HgN/A
8:50 PM50 °FLight rain. Passing clouds.9 mph82%30.30 "HgN/A
7:50 PM52 °FLight rain. Passing clouds.6 mph77%30.30 "HgN/A
6:50 PM54 °FPartly cloudy.12 mph67%30.30 "HgN/A
5:50 PM54 °FBroken clouds.16 mph67%30.27 "HgN/A
4:50 PM54 °FBroken clouds.10 mph67%30.27 "HgN/A
Weather by CustomWeather, © 2014

See weather overviewHow to use our weather pages